This is the latest recevied weather packets stored in our database for station/object IZ1UQG-N2. If no packets are shown the sender has not sent any weather packets the latest 10 day(s).
| Time | Temp. | Humidity | Pressure | Rain* | Wind** | Luminosity | Snow |
|---|---|---|---|---|---|---|---|
| 1777192094 | 20° C | 47% | 1015.3 hPa | 0 mm | - | 601 W/m² | - |
| 1777192034 | 20° C | 48% | 1015.3 hPa | 0 mm | - | 601 W/m² | - |
| 1777192030 | 20° C | 48% | 1015.3 hPa | 0 mm | - | 601 W/m² | - |
| 1777191976 | 20° C | 48% | 1015.3 hPa | 0 mm | - | 592 W/m² | - |
| 1777191915 | 20° C | 47% | 1015.3 hPa | 0 mm | - | 594 W/m² | - |
| 1777191855 | 20° C | 48% | 1015.4 hPa | 0 mm | - | 594 W/m² | - |
| 1777191851 | 20° C | 48% | 1015.4 hPa | 0 mm | - | 594 W/m² | - |
| 1777191795 | 20° C | 48% | 1015.3 hPa | 0 mm | - | 591 W/m² | - |
| 1777191735 | 19.44° C | 48% | 1015.3 hPa | 0 mm | - | 589 W/m² | - |
| 1777191674 | 19.44° C | 48% | 1015.3 hPa | 0 mm | - | 587 W/m² | - |
| 1777191670 | 19.44° C | 48% | 1015.3 hPa | 0 mm | - | 587 W/m² | - |
| 1777191616 | 19.44° C | 48% | 1015.3 hPa | 0 mm | - | 575 W/m² | - |
| 1777191556 | 19.44° C | 49% | 1015.3 hPa | 0 mm | - | 577 W/m² | - |
| 1777191495 | 19.44° C | 47% | 1015.2 hPa | 0 mm | - | 570 W/m² | - |
| 1777191490 | 19.44° C | 47% | 1015.2 hPa | 0 mm | - | 570 W/m² | - |
| 1777191434 | 19.44° C | 47% | 1015.2 hPa | 0 mm | - | 566 W/m² | - |
| 1777191374 | 19.44° C | 47% | 1015.2 hPa | 0 mm | - | 564 W/m² | - |
| 1777191315 | 19.44° C | 47% | 1015.3 hPa | 0 mm | - | 571 W/m² | - |
| 1777191310 | 19.44° C | 47% | 1015.3 hPa | 0 mm | - | 571 W/m² | - |
| 1777191256 | 19.44° C | 47% | 1015.3 hPa | 0 mm | - | 568 W/m² | - |
| 1777191195 | 19.44° C | 47% | 1015.3 hPa | 0 mm | - | 564 W/m² | - |
| 1777191135 | 19.44° C | 48% | 1015.1 hPa | 0 mm | - | 561 W/m² | - |
| 1777191129 | 19.44° C | 48% | 1015.1 hPa | 0 mm | - | 561 W/m² | - |
| 1777191076 | 19.44° C | 47% | 1015.3 hPa | 0 mm | - | 561 W/m² | - |
| 1777191015 | 18.89° C | 48% | 1015.3 hPa | 0 mm | - | 554 W/m² | - |
* Rain latest hour (hover to see other rain measurements)
** Current wind speed in m/s (hover to see current wind gust speed)